Time,TemperatureF,DewpointF,PressureIn,WindDirection,WindDirectionDegrees,WindSpeedMPH,WindSpeedGustMPH,Humidity,HourlyPrecipIn,Conditions,Clouds,dailyrainin,SoftwareType,DateUTC
2013-09-29 00:02:00,65.8,57.4,30.05,NNW,335,1.0,6.0,74,0.00,,,1.02,meteohub,2013-09-29 05:02:00,
2013-09-29 00:07:00,65.8,57.4,30.05,NNW,338,2.0,6.0,74,0.00,,,1.02,meteohub,2013-09-29 05:07:00,
2013-09-29 00:12:00,65.8,57.4,30.05,NW,326,0.0,6.0,74,0.00,,,0.00,meteohub,2013-09-29 05:12:00,
2013-09-29 00:17:00,65.8,57.0,30.05,NNW,329,0.0,8.0,73,0.00,,,0.00,meteohub,2013-09-29 05:17:00,
2013-09-29 00:22:00,65.8,57.0,30.05,NNW,329,0.0,8.0,73,0.00,,,0.00,meteohub,2013-09-29 05:22:00,
2013-09-29 00:27:00,65.8,57.4,30.05,NNW,330,0.0,8.0,74,0.00,,,0.00,meteohub,2013-09-29 05:27:00,
2013-09-29 00:32:00,65.8,57.4,30.05,NNW,329,0.0,8.0,74,0.00,,,0.00,meteohub,2013-09-29 05:32:00,
2013-09-29 00:37:00,65.8,57.7,30.05,NW,314,0.0,8.0,75,0.00,,,0.00,meteohub,2013-09-29 05:37:00,
2013-09-29 00:42:00,65.8,57.7,30.05,NW,315,0.0,5.0,75,0.00,,,0.00,meteohub,2013-09-29 05:42:00,
2013-09-29 00:47:00,65.7,57.9,30.04,NNW,331,0.0,5.0,76,0.00,,,0.00,meteohub,2013-09-29 05:47:00,
2013-09-29 00:52:00,65.7,57.9,30.04,NNW,331,0.0,5.0,76,0.00,,,0.00,meteohub,2013-09-29 05:52:00,
2013-09-29 00:57:00,65.5,57.7,30.04,NNW,331,0.0,5.0,76,0.00,,,0.00,meteohub,2013-09-29 05:57:00,
2013-09-29 01:02:00,65.5,57.4,30.04,NNW,331,0.0,0.0,75,0.00,,,0.00,meteohub,2013-09-29 06:02:00,
2013-09-29 01:07:00,65.5,57.4,30.04,NNW,331,0.0,0.0,75,0.00,,,0.00,meteohub,2013-09-29 06:07:00,
2013-09-29 01:12:00,65.5,57.4,30.05,NNW,331,0.0,0.0,75,0.00,,,0.00,meteohub,2013-09-29 06:12:00,
2013-09-29 01:17:00,65.5,57.7,30.04,NNW,331,0.0,0.0,76,0.00,,,0.00,meteohub,2013-09-29 06:17:00,
2013-09-29 01:23:00,65.5,57.4,30.05,NNW,331,0.0,0.0,75,0.00,,,0.00,meteohub,2013-09-29 06:23:00,
2013-09-29 01:28:00,65.5,57.7,30.05,NNW,331,0.0,0.0,76,0.00,,,0.00,meteohub,2013-09-29 06:28:00,
2013-09-29 01:33:00,65.3,57.9,30.05,NNW,330,0.0,0.0,77,0.00,,,0.00,meteohub,2013-09-29 06:33:00,
2013-09-29 01:38:00,65.1,57.7,30.04,NNW,330,0.0,0.0,77,0.00,,,0.00,meteohub,2013-09-29 06:38:00,
2013-09-29 01:43:00,64.9,57.6,30.05,NNW,330,0.0,0.0,77,0.00,,,0.00,meteohub,2013-09-29 06:43:00,
2013-09-29 01:48:00,64.9,57.6,30.05,NNW,331,0.0,0.0,77,0.00,,,0.00,meteohub,2013-09-29 06:48:00,
2013-09-29 01:53:00,64.8,57.4,30.05,NNW,331,0.0,0.0,77,0.00,,,0.00,meteohub,2013-09-29 06:53:00,
2013-09-29 01:58:00,64.8,57.4,30.05,NNW,331,0.0,5.0,77,0.00,,,0.00,meteohub,2013-09-29 06:58:00,
2013-09-29 02:03:00,64.8,57.4,30.05,NNW,331,0.0,5.0,77,0.00,,,0.00,meteohub,2013-09-29 07:03:00,
2013-09-29 02:08:00,64.6,57.6,30.05,NNW,331,0.0,5.0,78,0.00,,,0.00,meteohub,2013-09-29 07:08:00,
2013-09-29 02:13:00,64.6,57.6,30.05,NNW,331,0.0,5.0,78,0.00,,,0.00,meteohub,2013-09-29 07:13:00,
2013-09-29 02:18:00,64.6,57.6,30.05,NNW,331,0.0,5.0,78,0.00,,,0.00,meteohub,2013-09-29 07:18:00,
2013-09-29 02:23:00,64.6,57.2,30.06,NNW,331,0.0,5.0,77,0.00,,,0.00,meteohub,2013-09-29 07:23:00,
2013-09-29 02:28:00,64.6,57.2,30.05,NNW,331,0.0,5.0,77,0.00,,,0.00,meteohub,2013-09-29 07:28:00,
2013-09-29 02:33:00,64.6,57.2,30.05,NNW,330,0.0,0.0,77,0.00,,,0.00,meteohub,2013-09-29 07:33:00,
2013-09-29 02:38:00,64.6,57.2,30.06,NNW,331,0.0,0.0,77,0.00,,,0.00,meteohub,2013-09-29 07:38:00,
2013-09-29 02:43:00,64.6,57.2,30.05,NNW,331,0.0,0.0,77,0.00,,,0.00,meteohub,2013-09-29 07:43:00,
2013-09-29 02:48:00,64.6,56.8,30.05,NNW,332,0.0,0.0,76,0.00,,,0.00,meteohub,2013-09-29 07:48:00,
2013-09-29 02:53:00,64.4,57.0,30.05,NNW,332,0.0,0.0,77,0.00,,,0.00,meteohub,2013-09-29 07:53:00,
2013-09-29 02:58:00,64.4,56.7,30.06,NNW,331,0.0,5.0,76,0.00,,,0.00,meteohub,2013-09-29 07:58:00,
2013-09-29 03:03:00,64.4,56.7,30.06,NNW,331,0.0,5.0,76,0.00,,,0.00,meteohub,2013-09-29 08:03:00,
2013-09-29 03:08:00,64.4,56.7,30.06,NNW,331,0.0,5.0,76,0.00,,,0.00,meteohub,2013-09-29 08:08:00,
2013-09-29 03:13:00,64.4,56.7,30.05,NNW,332,0.0,0.0,76,0.00,,,0.00,meteohub,2013-09-29 08:13:00,
2013-09-29 03:18:00,64.4,56.7,30.05,NNW,330,0.0,0.0,76,0.00,,,0.00,meteohub,2013-09-29 08:18:00,
2013-09-29 03:23:00,64.4,56.7,30.05,NNW,329,0.0,0.0,76,0.00,,,0.00,meteohub,2013-09-29 08:23:00,
2013-09-29 03:28:00,64.4,57.0,30.05,NNW,329,0.0,0.0,77,0.00,,,0.00,meteohub,2013-09-29 08:28:00,
2013-09-29 03:33:00,64.2,56.8,30.06,NNW,327,0.0,0.0,77,0.00,,,0.00,meteohub,2013-09-29 08:33:00,
2013-09-29 03:38:00,64.2,56.8,30.05,NNW,327,0.0,5.0,77,0.00,,,0.00,meteohub,2013-09-29 08:38:00,
2013-09-29 03:43:00,64.2,56.8,30.05,NNW,329,0.0,5.0,77,0.00,,,0.00,meteohub,2013-09-29 08:43:00,
2013-09-29 03:48:00,64.2,56.5,30.05,NNW,346,0.0,5.0,76,0.00,,,0.00,meteohub,2013-09-29 08:48:00,
2013-09-29 03:53:00,64.0,56.3,30.06,NNW,346,0.0,5.0,76,0.00,,,0.00,meteohub,2013-09-29 08:53:00,
2013-09-29 03:59:00,64.0,56.3,30.05,NNW,345,4.0,5.0,76,0.00,,,0.00,meteohub,2013-09-29 08:59:00,
2013-09-29 04:04:00,64.0,56.3,30.05,NW,317,4.0,5.0,76,0.00,,,0.00,meteohub,2013-09-29 09:04:00,
2013-09-29 04:09:00,63.9,56.1,30.05,NW,318,0.0,5.0,76,0.00,,,0.00,meteohub,2013-09-29 09:09:00,
2013-09-29 04:14:00,63.9,56.5,30.05,NW,319,0.0,6.0,77,0.00,,,0.00,meteohub,2013-09-29 09:14:00,
2013-09-29 04:19:00,63.9,56.5,30.04,NW,319,4.0,6.0,77,0.00,,,0.00,meteohub,2013-09-29 09:19:00,
2013-09-29 04:24:00,63.7,56.7,30.04,NW,320,0.0,6.0,78,0.00,,,0.00,meteohub,2013-09-29 09:24:00,
2013-09-29 04:29:00,63.7,56.7,30.04,NW,321,0.0,6.0,78,0.00,,,0.00,meteohub,2013-09-29 09:29:00,
2013-09-29 04:34:00,63.5,56.5,30.04,NW,321,0.0,6.0,78,0.00,,,0.00,meteohub,2013-09-29 09:34:00,
2013-09-29 04:39:00,63.3,56.7,30.04,NW,325,4.0,6.0,79,0.00,,,0.00,meteohub,2013-09-29 09:39:00,
2013-09-29 04:44:00,63.1,56.5,30.04,NW,326,0.0,6.0,79,0.00,,,0.00,meteohub,2013-09-29 09:44:00,
2013-09-29 04:49:00,63.0,56.3,30.04,NW,324,0.0,6.0,79,0.00,,,0.00,meteohub,2013-09-29 09:49:00,
2013-09-29 04:54:00,63.0,56.7,30.04,NW,325,1.0,6.0,80,0.00,,,0.00,meteohub,2013-09-29 09:54:00,
2013-09-29 04:59:00,62.8,56.5,30.04,NNW,331,0.0,6.0,80,0.00,,,0.00,meteohub,2013-09-29 09:59:00,
2013-09-29 05:05:00,62.6,56.7,30.04,NW,323,0.0,8.0,81,0.00,,,0.00,meteohub,2013-09-29 10:05:00,
2013-09-29 05:10:00,62.4,56.5,30.04,NNW,329,0.0,8.0,81,0.00,,,0.00,meteohub,2013-09-29 10:10:00,
2013-09-29 05:14:00,62.2,56.3,30.04,NNW,329,2.0,8.0,81,0.00,,,0.00,meteohub,2013-09-29 10:14:00,
2013-09-29 05:20:00,62.2,56.3,30.04,NNW,329,0.0,8.0,81,0.00,,,0.00,meteohub,2013-09-29 10:20:00,
2013-09-29 05:25:00,62.1,56.1,30.04,NW,322,9.0,9.0,81,0.00,,,0.00,meteohub,2013-09-29 10:25:00,
2013-09-29 05:30:00,62.1,56.1,30.04,NNW,327,0.0,9.0,81,0.00,,,0.00,meteohub,2013-09-29 10:30:00,
2013-09-29 05:35:00,62.1,56.1,30.04,NNW,327,1.0,9.0,81,0.00,,,0.00,meteohub,2013-09-29 10:35:00,
2013-09-29 05:40:00,61.9,56.3,30.04,NNW,328,0.0,9.0,82,0.00,,,0.00,meteohub,2013-09-29 10:40:00,
2013-09-29 05:45:00,61.9,56.3,30.04,NNW,340,2.0,9.0,82,0.00,,,0.00,meteohub,2013-09-29 10:45:00,
2013-09-29 05:50:00,61.7,56.1,30.04,NNW,338,0.0,9.0,82,0.00,,,0.00,meteohub,2013-09-29 10:50:00,
2013-09-29 05:55:00,61.5,55.9,30.05,NNW,338,0.0,6.0,82,0.00,,,0.00,meteohub,2013-09-29 10:55:00,
2013-09-29 06:00:00,61.5,55.9,30.05,NNW,338,0.0,6.0,82,0.00,,,0.00,meteohub,2013-09-29 11:00:00,
2013-09-29 06:05:00,61.3,55.8,30.06,NNW,338,0.0,6.0,82,0.00,,,0.00,meteohub,2013-09-29 11:05:00,
2013-09-29 06:10:00,61.3,55.8,30.06,NNW,338,0.0,6.0,82,0.00,,,0.00,meteohub,2013-09-29 11:10:00,
2013-09-29 06:15:00,61.3,55.8,30.06,NNW,338,0.0,6.0,82,0.00,,,0.00,meteohub,2013-09-29 11:15:00,
2013-09-29 06:20:00,61.2,55.6,30.05,NNW,338,0.0,0.0,82,0.00,,,0.00,meteohub,2013-09-29 11:20:00,
2013-09-29 06:25:00,61.2,55.9,30.06,NNW,338,0.0,0.0,83,0.00,,,0.00,meteohub,2013-09-29 11:25:00,
2013-09-29 06:30:00,61.2,55.9,30.06,NNW,338,0.0,0.0,83,0.00,,,0.00,meteohub,2013-09-29 11:30:00,
2013-09-29 06:35:00,61.2,55.9,30.06,NNW,338,0.0,0.0,83,0.00,,,0.00,meteohub,2013-09-29 11:35:00,
2013-09-29 06:40:00,61.0,55.8,30.06,NNW,338,0.0,0.0,83,0.00,,,0.00,meteohub,2013-09-29 11:40:00,
2013-09-29 06:45:00,61.0,55.8,30.06,NNW,338,0.0,0.0,83,0.00,,,0.00,meteohub,2013-09-29 11:45:00,
2013-09-29 06:50:00,60.8,55.9,30.06,NNW,338,0.0,0.0,84,0.00,,,0.00,meteohub,2013-09-29 11:50:00,
2013-09-29 06:55:00,60.6,55.8,30.06,NNW,338,0.0,0.0,84,0.00,,,0.00,meteohub,2013-09-29 11:55:00,
2013-09-29 07:00:00,60.6,55.8,30.06,NNW,338,0.0,0.0,84,0.00,,,0.00,meteohub,2013-09-29 12:00:00,
2013-09-29 07:06:00,60.4,55.6,30.06,NNW,338,0.0,0.0,84,0.00,,,0.00,meteohub,2013-09-29 12:06:00,
2013-09-29 07:11:00,60.3,55.8,30.06,NNW,338,0.0,0.0,85,0.00,,,0.00,meteohub,2013-09-29 12:11:00,
2013-09-29 07:16:00,60.3,55.8,30.06,NNW,338,0.0,0.0,85,0.00,,,0.00,meteohub,2013-09-29 12:16:00,
2013-09-29 07:21:00,60.1,55.6,30.06,NNW,338,0.0,0.0,85,0.00,,,0.00,meteohub,2013-09-29 12:21:00,
2013-09-29 07:26:00,60.1,55.6,30.06,NNW,338,0.0,0.0,85,0.00,,,0.00,meteohub,2013-09-29 12:26:00,
2013-09-29 07:31:00,59.9,55.4,30.06,NNW,338,0.0,0.0,85,0.00,,,0.00,meteohub,2013-09-29 12:31:00,
2013-09-29 07:36:00,59.7,55.6,30.07,NNW,338,0.0,0.0,86,0.00,,,0.00,meteohub,2013-09-29 12:36:00,
2013-09-29 07:41:00,59.7,55.8,30.06,NNW,338,0.0,0.0,87,0.00,,,0.00,meteohub,2013-09-29 12:41:00,
2013-09-29 07:46:00,59.5,55.6,30.06,NNW,337,0.0,0.0,87,0.00,,,0.00,meteohub,2013-09-29 12:46:00,
2013-09-29 07:51:00,59.5,55.6,30.06,NNW,337,0.0,0.0,87,0.00,,,0.00,meteohub,2013-09-29 12:51:00,
2013-09-29 07:56:00,59.5,55.9,30.06,NNW,337,0.0,0.0,88,0.00,,,0.00,meteohub,2013-09-29 12:56:00,
2013-09-29 08:01:00,59.4,55.8,30.06,NNW,337,0.0,0.0,88,0.00,,,0.00,meteohub,2013-09-29 13:01:00,
2013-09-29 08:06:00,59.4,55.8,30.06,NNW,337,0.0,0.0,88,0.00,,,0.00,meteohub,2013-09-29 13:06:00,
2013-09-29 08:11:00,59.5,55.6,30.07,NNW,338,0.0,0.0,87,0.00,,,0.00,meteohub,2013-09-29 13:11:00,
2013-09-29 08:16:00,59.5,55.6,30.07,NNW,337,0.0,0.0,87,0.00,,,0.00,meteohub,2013-09-29 13:16:00,
2013-09-29 08:21:00,59.5,55.6,30.07,NNW,338,0.0,0.0,87,0.00,,,0.00,meteohub,2013-09-29 13:21:00,
2013-09-29 08:26:00,59.7,55.8,30.07,NNW,337,0.0,0.0,87,0.00,,,0.00,meteohub,2013-09-29 13:26:00,
2013-09-29 08:32:00,59.9,55.9,30.07,NNW,335,2.0,0.0,87,0.00,,,0.00,meteohub,2013-09-29 13:32:00,
2013-09-29 08:37:00,60.3,56.1,30.07,NNW,333,0.0,0.0,86,0.00,,,0.00,meteohub,2013-09-29 13:37:00,
2013-09-29 08:42:00,60.6,56.1,30.08,NNW,332,0.0,0.0,85,0.00,,,0.00,meteohub,2013-09-29 13:42:00,
2013-09-29 08:47:00,61.0,55.8,30.08,NNW,329,4.0,0.0,83,0.00,,,0.00,meteohub,2013-09-29 13:47:00,
2013-09-29 08:52:00,61.2,55.9,30.08,NNW,327,0.0,0.0,83,0.00,,,0.00,meteohub,2013-09-29 13:52:00,
2013-09-29 08:57:00,61.5,55.9,30.08,NNW,327,0.0,7.0,82,0.00,,,0.00,meteohub,2013-09-29 13:57:00,
2013-09-29 09:02:00,61.9,55.6,30.08,NNW,342,0.0,7.0,80,0.00,,,0.00,meteohub,2013-09-29 14:02:00,
2013-09-29 09:07:00,62.2,55.6,30.08,NNW,342,0.0,7.0,79,0.00,,,0.00,meteohub,2013-09-29 14:07:00,
2013-09-29 09:12:00,62.4,55.8,30.08,NNW,341,4.0,7.0,79,0.00,,,0.00,meteohub,2013-09-29 14:12:00,
2013-09-29 09:17:00,62.8,55.8,30.08,NNW,331,4.0,6.0,78,0.00,,,0.00,meteohub,2013-09-29 14:17:00,
2013-09-29 09:22:00,63.1,55.4,30.08,North,355,2.0,6.0,76,0.00,,,0.00,meteohub,2013-09-29 14:22:00,
2013-09-29 09:27:00,63.5,55.4,30.08,NNW,327,0.0,6.0,75,0.00,,,0.00,meteohub,2013-09-29 14:27:00,
2013-09-29 09:32:00,63.9,55.8,30.09,NE,35,0.0,6.0,75,0.00,,,0.00,meteohub,2013-09-29 14:32:00,
2013-09-29 09:37:00,64.4,55.2,30.09,NNW,340,0.0,6.0,72,0.00,,,0.00,meteohub,2013-09-29 14:37:00,
2013-09-29 09:42:00,64.9,55.8,30.09,NNE,24,0.0,8.0,72,0.00,,,0.00,meteohub,2013-09-29 14:42:00,
2013-09-29 09:47:00,65.5,55.8,30.09,NW,315,1.0,8.0,71,0.00,,,0.00,meteohub,2013-09-29 14:47:00,
2013-09-29 09:52:00,65.5,55.8,30.09,NE,44,0.0,8.0,71,0.00,,,0.00,meteohub,2013-09-29 14:52:00,
2013-09-29 09:57:00,65.8,55.4,30.09,North,0,0.0,8.0,69,0.00,,,0.00,meteohub,2013-09-29 14:57:00,
2013-09-29 10:02:00,66.0,55.6,30.09,ESE,113,2.0,6.0,69,0.00,,,0.00,meteohub,2013-09-29 15:02:00,
2013-09-29 10:07:00,66.4,55.0,30.09,North,5,0.0,6.0,67,0.00,,,0.00,meteohub,2013-09-29 15:07:00,
2013-09-29 10:12:00,66.6,55.2,30.09,NNW,337,2.0,6.0,67,0.00,,,0.00,meteohub,2013-09-29 15:12:00,
2013-09-29 10:17:00,66.6,54.9,30.09,NNW,334,0.0,6.0,66,0.00,,,0.00,meteohub,2013-09-29 15:17:00,
2013-09-29 10:22:00,66.7,55.4,30.09,NNW,339,0.0,6.0,67,0.00,,,0.00,meteohub,2013-09-29 15:22:00,
2013-09-29 10:27:00,66.7,54.7,30.09,ENE,74,0.0,8.0,65,0.00,,,0.00,meteohub,2013-09-29 15:27:00,
2013-09-29 10:32:00,67.1,54.9,30.09,North,5,0.0,8.0,65,0.00,,,0.00,meteohub,2013-09-29 15:32:00,
2013-09-29 10:37:00,67.6,55.0,30.09,North,5,0.0,8.0,64,0.00,,,0.00,meteohub,2013-09-29 15:37:00,
2013-09-29 10:42:00,67.8,55.2,30.09,NNW,338,0.0,8.0,64,0.00,,,0.00,meteohub,2013-09-29 15:42:00,
2013-09-29 10:47:00,68.0,54.5,30.09,NNW,334,0.0,8.0,62,0.00,,,0.00,meteohub,2013-09-29 15:47:00,
2013-09-29 10:52:00,68.2,54.7,30.09,NNW,344,8.0,8.0,62,0.00,,,0.00,meteohub,2013-09-29 15:52:00,
2013-09-29 10:57:00,68.4,54.0,30.09,North,5,0.0,9.0,60,0.00,,,0.00,meteohub,2013-09-29 15:57:00,
2013-09-29 11:02:00,68.5,51.8,30.09,NW,317,5.0,9.0,55,0.00,,,0.00,meteohub,2013-09-29 16:02:00,
2013-09-29 11:07:00,69.3,51.4,30.09,NNW,341,1.0,9.0,53,0.00,,,0.00,meteohub,2013-09-29 16:07:00,
2013-09-29 11:12:00,69.6,51.3,30.09,NE,34,0.0,9.0,52,0.00,,,0.00,meteohub,2013-09-29 16:12:00,
2013-09-29 11:17:00,70.2,51.3,30.09,East,81,2.0,9.0,51,0.00,,,0.00,meteohub,2013-09-29 16:17:00,
2013-09-29 11:22:00,70.3,49.1,30.09,North,11,3.0,9.0,47,0.00,,,0.00,meteohub,2013-09-29 16:22:00,
2013-09-29 11:27:00,70.5,50.4,30.09,North,10,1.0,9.0,49,0.00,,,0.00,meteohub,2013-09-29 16:27:00,
2013-09-29 11:32:00,70.5,50.4,30.09,North,0,2.0,9.0,49,0.00,,,0.00,meteohub,2013-09-29 16:32:00,
2013-09-29 11:37:00,70.5,50.9,30.09,North,350,2.0,9.0,50,0.00,,,0.00,meteohub,2013-09-29 16:37:00,
2013-09-29 11:42:00,70.9,49.1,30.08,NNW,331,5.0,10.0,46,0.00,,,0.00,meteohub,2013-09-29 16:42:00,
2013-09-29 11:47:00,71.2,48.7,30.08,NNE,25,4.0,10.0,45,0.00,,,0.00,meteohub,2013-09-29 16:47:00,
2013-09-29 11:52:00,71.4,49.6,30.08,NW,312,2.0,10.0,46,0.00,,,0.00,meteohub,2013-09-29 16:52:00,
2013-09-29 11:57:00,71.8,48.7,30.08,North,5,2.0,10.0,44,0.00,,,0.00,meteohub,2013-09-29 16:57:00,
2013-09-29 12:02:00,71.6,48.6,30.08,NNW,340,4.0,11.0,44,0.00,,,0.00,meteohub,2013-09-29 17:02:00,
2013-09-29 12:07:00,71.2,48.7,30.07,North,355,2.0,11.0,45,0.00,,,0.00,meteohub,2013-09-29 17:07:00,
2013-09-29 12:12:00,71.2,48.7,30.07,NW,310,6.0,11.0,45,0.00,,,0.00,meteohub,2013-09-29 17:12:00,
2013-09-29 12:17:00,71.8,49.8,30.07,NNW,333,1.0,11.0,46,0.00,,,0.00,meteohub,2013-09-29 17:17:00,
2013-09-29 12:22:00,72.1,49.6,30.07,North,0,7.0,11.0,45,0.00,,,0.00,meteohub,2013-09-29 17:22:00,
2013-09-29 12:27:00,72.3,49.1,30.07,NNW,336,7.0,11.0,44,0.00,,,0.00,meteohub,2013-09-29 17:27:00,
2013-09-29 12:32:00,72.3,49.1,30.06,NNW,342,6.0,11.0,44,0.00,,,0.00,meteohub,2013-09-29 17:32:00,
2013-09-29 12:37:00,72.5,50.0,30.06,NW,313,0.0,11.0,45,0.00,,,0.00,meteohub,2013-09-29 17:37:00,
2013-09-29 12:42:00,72.9,50.4,30.06,NW,311,2.0,11.0,45,0.00,,,0.00,meteohub,2013-09-29 17:42:00,
2013-09-29 12:47:00,73.0,49.8,30.06,NNE,31,9.0,11.0,44,0.00,,,0.00,meteohub,2013-09-29 17:47:00,
2013-09-29 12:52:00,73.4,48.9,30.06,North,350,1.0,11.0,42,0.00,,,0.00,meteohub,2013-09-29 17:52:00,
2013-09-29 12:57:00,73.6,49.1,30.05,North,351,4.0,11.0,42,0.00,,,0.00,meteohub,2013-09-29 17:57:00,
2013-09-29 13:02:00,73.6,49.1,30.05,NW,325,1.0,11.0,42,0.00,,,0.00,meteohub,2013-09-29 18:02:00,
2013-09-29 13:07:00,73.2,49.5,30.04,NW,314,0.0,11.0,43,0.00,,,0.00,meteohub,2013-09-29 18:07:00,
2013-09-29 13:12:00,73.8,49.8,30.04,NNW,347,0.0,11.0,43,0.00,,,0.00,meteohub,2013-09-29 18:12:00,
2013-09-29 13:17:00,73.9,49.5,30.04,WNW,288,4.0,11.0,42,0.00,,,0.00,meteohub,2013-09-29 18:17:00,
2013-09-29 13:22:00,74.1,49.6,30.04,West,271,5.0,8.0,42,0.00,,,0.00,meteohub,2013-09-29 18:22:00,
2013-09-29 13:27:00,74.5,49.8,30.04,NW,325,5.0,8.0,42,0.00,,,0.00,meteohub,2013-09-29 18:27:00,
2013-09-29 13:32:00,74.8,50.2,30.04,WSW,258,0.0,8.0,42,0.00,,,0.00,meteohub,2013-09-29 18:32:00,
2013-09-29 13:37:00,75.0,46.9,30.03,NNW,340,5.0,8.0,37,0.00,,,0.00,meteohub,2013-09-29 18:37:00,
2013-09-29 13:42:00,74.7,46.6,30.03,North,355,4.0,8.0,37,0.00,,,0.00,meteohub,2013-09-29 18:42:00,
2013-09-29 13:47:00,74.1,48.2,30.03,NNW,340,2.0,15.0,40,0.00,,,0.00,meteohub,2013-09-29 18:47:00,
2013-09-29 13:52:00,74.5,49.3,30.02,NNW,341,8.0,15.0,41,0.00,,,0.00,meteohub,2013-09-29 18:52:00,
2013-09-29 13:57:00,74.5,49.3,30.02,NW,323,2.0,15.0,41,0.00,,,0.00,meteohub,2013-09-29 18:57:00,
2013-09-29 14:02:00,74.8,47.5,30.01,NW,306,2.0,15.0,38,0.00,,,0.00,meteohub,2013-09-29 19:02:00,
2013-09-29 14:07:00,74.8,48.2,30.01,NW,321,1.0,15.0,39,0.00,,,0.00,meteohub,2013-09-29 19:07:00,
2013-09-29 14:12:00,75.0,47.7,30.01,NW,319,2.0,12.0,38,0.00,,,0.00,meteohub,2013-09-29 19:12:00,
2013-09-29 14:17:00,75.4,48.0,30.00,NW,322,10.0,12.0,38,0.00,,,0.00,meteohub,2013-09-29 19:17:00,
2013-09-29 14:22:00,75.0,48.4,30.00,NW,311,2.0,12.0,39,0.00,,,0.00,meteohub,2013-09-29 19:22:00,
2013-09-29 14:27:00,75.0,48.4,30.00,WNW,292,1.0,12.0,39,0.00,,,0.00,meteohub,2013-09-29 19:27:00,
2013-09-29 14:32:00,75.7,48.4,29.99,NNW,342,0.0,12.0,38,0.00,,,0.00,meteohub,2013-09-29 19:32:00,
2013-09-29 14:37:00,75.9,47.8,29.99,NNW,338,0.0,12.0,37,0.00,,,0.00,meteohub,2013-09-29 19:37:00,
2013-09-29 14:42:00,75.7,48.4,29.99,NNW,335,1.0,12.0,38,0.00,,,0.00,meteohub,2013-09-29 19:42:00,
2013-09-29 14:47:00,75.7,47.7,29.98,WNW,302,0.0,12.0,37,0.00,,,0.00,meteohub,2013-09-29 19:47:00,
2013-09-29 14:48:00,75.9,47.8,29.98,NW,307,2.0,12.0,37,0.00,,,0.00,meteohub,2013-09-29 19:48:00,
2013-09-29 14:53:00,76.3,49.5,29.98,NNE,14,0.0,12.0,39,0.00,,,0.00,meteohub,2013-09-29 19:53:00,
2013-09-29 14:58:00,76.8,49.3,29.98,NNW,337,9.0,9.0,38,0.00,,,0.00,meteohub,2013-09-29 19:58:00,
2013-09-29 15:03:00,76.6,48.4,29.97,NNE,13,2.0,8.0,37,0.00,,,0.00,meteohub,2013-09-29 20:03:00,
2013-09-29 15:08:00,77.0,48.7,29.97,NNW,333,2.0,8.0,37,0.00,,,0.00,meteohub,2013-09-29 20:08:00,
2013-09-29 15:13:00,76.8,48.6,29.97,NNW,333,4.0,8.0,37,0.00,,,0.00,meteohub,2013-09-29 20:13:00,
2013-09-29 15:18:00,76.8,48.6,29.96,NNW,346,2.0,10.0,37,0.00,,,0.00,meteohub,2013-09-29 20:18:00,
2013-09-29 15:23:00,77.0,48.0,29.96,NNW,348,6.0,10.0,36,0.00,,,0.00,meteohub,2013-09-29 20:23:00,
2013-09-29 15:28:00,76.8,47.8,29.96,NNW,341,1.0,10.0,36,0.00,,,0.00,meteohub,2013-09-29 20:28:00,
2013-09-29 15:33:00,76.8,48.6,29.96,North,5,6.0,11.0,37,0.00,,,0.00,meteohub,2013-09-29 20:33:00,
2013-09-29 15:38:00,77.2,48.2,29.96,North,9,0.0,11.0,36,0.00,,,0.00,meteohub,2013-09-29 20:38:00,
2013-09-29 15:43:00,77.7,49.5,29.95,NNW,333,0.0,11.0,37,0.00,,,0.00,meteohub,2013-09-29 20:43:00,
2013-09-29 15:48:00,78.1,48.2,29.95,NNW,337,6.0,11.0,35,0.00,,,0.00,meteohub,2013-09-29 20:48:00,
2013-09-29 15:53:00,78.1,48.2,29.95,NW,322,6.0,11.0,35,0.00,,,0.00,meteohub,2013-09-29 20:53:00,
2013-09-29 15:58:00,78.3,48.4,29.95,NNW,331,2.0,11.0,35,0.00,,,0.00,meteohub,2013-09-29 20:58:00,
2013-09-29 16:03:00,78.1,45.9,29.95,NW,318,2.0,11.0,32,0.00,,,0.00,meteohub,2013-09-29 21:03:00,
2013-09-29 16:08:00,78.1,45.9,29.95,NNW,340,0.0,11.0,32,0.00,,,0.00,meteohub,2013-09-29 21:08:00,
2013-09-29 16:13:00,78.3,46.0,29.94,NW,316,0.0,10.0,32,0.00,,,0.00,meteohub,2013-09-29 21:13:00,
2013-09-29 16:18:00,79.0,46.6,29.94,NNW,338,0.0,10.0,32,0.00,,,0.00,meteohub,2013-09-29 21:18:00,
2013-09-29 16:23:00,79.0,46.6,29.94,NNW,333,0.0,10.0,32,0.00,,,0.00,meteohub,2013-09-29 21:23:00,
2013-09-29 16:28:00,79.2,46.8,29.94,North,11,0.0,10.0,32,0.00,,,0.00,meteohub,2013-09-29 21:28:00,
2013-09-29 16:33:00,79.2,45.9,29.94,NNW,336,5.0,9.0,31,0.00,,,0.00,meteohub,2013-09-29 21:33:00,
2013-09-29 16:38:00,79.3,46.0,29.94,North,5,0.0,9.0,31,0.00,,,0.00,meteohub,2013-09-29 21:38:00,
2013-09-29 16:43:00,79.3,44.2,29.94,NNW,330,4.0,9.0,29,0.00,,,0.00,meteohub,2013-09-29 21:43:00,
2013-09-29 16:48:00,79.0,44.1,29.94,NW,322,0.0,9.0,29,0.00,,,0.00,meteohub,2013-09-29 21:48:00,
2013-09-29 16:53:00,79.2,44.2,29.94,NNW,337,0.0,9.0,29,0.00,,,0.00,meteohub,2013-09-29 21:53:00,
2013-09-29 16:58:00,79.3,43.3,29.94,NW,311,5.0,11.0,28,0.00,,,0.00,meteohub,2013-09-29 21:58:00,
2013-09-29 17:03:00,79.2,44.2,29.94,NNW,340,1.0,11.0,29,0.00,,,0.00,meteohub,2013-09-29 22:03:00,
2013-09-29 17:09:00,79.0,44.1,29.93,NNW,329,4.0,11.0,29,0.00,,,0.00,meteohub,2013-09-29 22:09:00,
2013-09-29 17:14:00,79.0,44.1,29.93,NNW,348,0.0,11.0,29,0.00,,,0.00,meteohub,2013-09-29 22:14:00,
2013-09-29 17:19:00,79.2,44.2,29.93,North,355,1.0,11.0,29,0.00,,,0.00,meteohub,2013-09-29 22:19:00,
2013-09-29 17:24:00,79.3,44.2,29.93,NNW,344,0.0,11.0,29,0.00,,,0.00,meteohub,2013-09-29 22:24:00,
2013-09-29 17:29:00,79.7,44.6,29.93,NNW,340,5.0,6.0,29,0.00,,,0.00,meteohub,2013-09-29 22:29:00,
2013-09-29 17:34:00,79.7,43.7,29.93,NNW,332,2.0,6.0,28,0.00,,,0.00,meteohub,2013-09-29 22:34:00,
2013-09-29 17:39:00,79.3,43.3,29.93,NNW,334,1.0,6.0,28,0.00,,,0.00,meteohub,2013-09-29 22:39:00,
2013-09-29 17:44:00,79.2,44.2,29.93,North,5,3.0,10.0,29,0.00,,,0.00,meteohub,2013-09-29 22:44:00,
2013-09-29 17:49:00,79.0,45.0,29.93,North,355,2.0,10.0,30,0.00,,,0.00,meteohub,2013-09-29 22:49:00,
2013-09-29 17:54:00,79.2,44.2,29.93,NNW,335,2.0,10.0,29,0.00,,,0.00,meteohub,2013-09-29 22:54:00,
2013-09-29 17:59:00,79.2,44.2,29.93,NNW,333,0.0,5.0,29,0.00,,,0.00,meteohub,2013-09-29 22:59:00,
2013-09-29 18:04:00,79.2,45.1,29.92,NNW,333,2.0,5.0,30,0.00,,,0.00,meteohub,2013-09-29 23:04:00,
2013-09-29 18:09:00,79.2,45.1,29.92,NNW,338,4.0,5.0,30,0.00,,,0.00,meteohub,2013-09-29 23:09:00,
2013-09-29 18:14:00,79.0,45.0,29.92,NNW,327,0.0,5.0,30,0.00,,,0.00,meteohub,2013-09-29 23:14:00,
2013-09-29 18:19:00,79.0,45.0,29.92,NNW,327,0.0,8.0,30,0.00,,,0.00,meteohub,2013-09-29 23:19:00,
2013-09-29 18:24:00,79.2,45.1,29.92,NW,326,0.0,8.0,30,0.00,,,0.00,meteohub,2013-09-29 23:24:00,
2013-09-29 18:29:00,79.2,45.1,29.92,NW,325,0.0,8.0,30,0.00,,,0.00,meteohub,2013-09-29 23:29:00,
2013-09-29 18:34:00,79.2,45.1,29.92,NNW,327,0.0,8.0,30,0.00,,,0.00,meteohub,2013-09-29 23:34:00,
2013-09-29 18:39:00,79.2,45.9,29.92,NNW,347,1.0,4.0,31,0.00,,,0.00,meteohub,2013-09-29 23:39:00,
2013-09-29 18:44:00,79.0,45.7,29.92,NNW,337,0.0,4.0,31,0.00,,,0.00,meteohub,2013-09-29 23:44:00,
2013-09-29 18:49:00,78.6,45.5,29.92,NNW,337,0.0,4.0,31,0.00,,,0.00,meteohub,2013-09-29 23:49:00,
2013-09-29 18:54:00,78.4,44.4,29.92,NNW,335,0.0,4.0,30,0.00,,,0.00,meteohub,2013-09-29 23:54:00,
2013-09-29 18:59:00,78.3,45.1,29.92,NNW,335,0.0,4.0,31,0.00,,,0.00,meteohub,2013-09-29 23:59:00,
2013-09-29 19:04:00,78.3,46.0,29.92,NNW,335,0.0,4.0,32,0.00,,,0.00,meteohub,2013-09-30 00:04:00,
2013-09-29 19:09:00,78.3,46.8,29.92,NNW,335,0.0,4.0,33,0.00,,,0.00,meteohub,2013-09-30 00:09:00,
2013-09-29 19:14:00,78.1,45.9,29.92,NNW,335,0.0,0.0,32,0.00,,,0.00,meteohub,2013-09-30 00:14:00,
2013-09-29 19:19:00,77.9,46.4,29.92,NNW,335,0.0,0.0,33,0.00,,,0.00,meteohub,2013-09-30 00:19:00,
2013-09-29 19:24:00,77.4,46.8,29.92,NNW,335,0.0,0.0,34,0.00,,,0.00,meteohub,2013-09-30 00:24:00,
2013-09-29 19:29:00,76.8,47.1,29.92,NNW,335,0.0,0.0,35,0.00,,,0.00,meteohub,2013-09-30 00:29:00,
2013-09-29 19:34:00,76.3,48.7,29.92,NNW,335,0.0,0.0,38,0.00,,,0.00,meteohub,2013-09-30 00:34:00,
2013-09-29 19:39:00,75.7,49.1,29.92,NNW,335,0.0,0.0,39,0.00,,,0.00,meteohub,2013-09-30 00:39:00,
2013-09-29 19:44:00,75.2,49.8,29.92,NNW,335,0.0,0.0,41,0.00,,,0.00,meteohub,2013-09-30 00:44:00,
2013-09-29 19:49:00,74.7,51.3,29.92,NNW,335,0.0,0.0,44,0.00,,,0.00,meteohub,2013-09-30 00:49:00,
2013-09-29 19:54:00,73.9,51.3,29.92,NNW,335,0.0,0.0,45,0.00,,,0.00,meteohub,2013-09-30 00:54:00,
2013-09-29 20:00:00,73.2,51.8,29.91,NNW,336,0.0,0.0,47,0.00,,,0.00,meteohub,2013-09-30 01:00:00,
2013-09-29 20:05:00,72.7,52.3,29.92,NNW,336,0.0,0.0,49,0.00,,,0.00,meteohub,2013-09-30 01:05:00,
2013-09-29 20:10:00,72.0,51.3,29.92,NNW,336,0.0,0.0,48,0.00,,,0.00,meteohub,2013-09-30 01:10:00,
2013-09-29 20:15:00,71.4,51.3,29.92,NNW,336,0.0,0.0,49,0.00,,,0.00,meteohub,2013-09-30 01:15:00,
2013-09-29 20:21:00,71.1,52.5,29.92,NNW,336,0.0,0.0,52,0.00,,,0.00,meteohub,2013-09-30 01:21:00,
2013-09-29 20:26:00,70.5,53.1,29.92,NNW,336,0.0,0.0,54,0.00,,,0.00,meteohub,2013-09-30 01:26:00,
2013-09-29 20:31:00,70.2,53.2,29.91,NNW,336,0.0,0.0,55,0.00,,,0.00,meteohub,2013-09-30 01:31:00,
2013-09-29 20:36:00,69.6,53.2,29.92,NNW,336,0.0,0.0,56,0.00,,,0.00,meteohub,2013-09-30 01:36:00,
2013-09-29 20:41:00,69.3,52.9,29.91,NNW,344,0.0,0.0,56,0.00,,,0.00,meteohub,2013-09-30 01:41:00,
2013-09-29 20:46:00,68.9,53.1,29.91,NNW,344,0.0,0.0,57,0.00,,,0.00,meteohub,2013-09-30 01:46:00,
2013-09-29 20:51:00,68.5,53.2,29.91,NNW,344,0.0,0.0,58,0.00,,,0.00,meteohub,2013-09-30 01:51:00,
2013-09-29 20:56:00,68.2,53.2,29.91,NNW,344,0.0,0.0,59,0.00,,,0.00,meteohub,2013-09-30 01:56:00,
2013-09-29 21:01:00,67.8,53.4,29.91,NNW,344,0.0,0.0,60,0.00,,,0.00,meteohub,2013-09-30 02:01:00,
2013-09-29 21:06:00,67.6,53.8,29.91,NNW,344,0.0,0.0,61,0.00,,,0.00,meteohub,2013-09-30 02:06:00,
2013-09-29 21:11:00,67.3,53.4,29.91,NNW,344,0.0,0.0,61,0.00,,,0.00,meteohub,2013-09-30 02:11:00,
2013-09-29 21:17:00,66.9,53.1,29.91,NNW,344,0.0,0.0,61,0.00,,,0.00,meteohub,2013-09-30 02:17:00,
2013-09-29 21:22:00,66.7,53.2,29.91,NNW,344,0.0,0.0,62,0.00,,,0.00,meteohub,2013-09-30 02:22:00,
2013-09-29 21:27:00,66.4,52.9,29.91,NNW,344,0.0,0.0,62,0.00,,,0.00,meteohub,2013-09-30 02:27:00,
2013-09-29 21:32:00,66.2,52.9,29.91,NNW,344,0.0,0.0,62,0.00,,,0.00,meteohub,2013-09-30 02:32:00,
2013-09-29 21:37:00,66.0,52.7,29.91,NNW,344,0.0,0.0,62,0.00,,,0.00,meteohub,2013-09-30 02:37:00,
2013-09-29 21:42:00,65.8,52.0,29.92,NNW,344,0.0,0.0,61,0.00,,,0.00,meteohub,2013-09-30 02:42:00,
2013-09-29 21:47:00,65.7,52.3,29.92,NNW,344,0.0,0.0,62,0.00,,,0.00,meteohub,2013-09-30 02:47:00,
2013-09-29 21:52:00,65.5,51.6,29.92,NNW,344,0.0,0.0,61,0.00,,,0.00,meteohub,2013-09-30 02:52:00,
2013-09-29 21:57:00,65.3,51.4,29.92,NNW,344,0.0,0.0,61,0.00,,,0.00,meteohub,2013-09-30 02:57:00,
2013-09-29 22:02:00,65.3,51.4,29.92,NNW,344,0.0,0.0,61,0.00,,,0.00,meteohub,2013-09-30 03:02:00,
2013-09-29 22:07:00,65.1,51.3,29.92,NNW,344,0.0,0.0,61,0.00,,,0.00,meteohub,2013-09-30 03:07:00,
2013-09-29 22:12:00,65.1,52.2,29.92,NNW,344,0.0,0.0,63,0.00,,,0.00,meteohub,2013-09-30 03:12:00,
2013-09-29 22:17:00,64.9,52.0,29.92,NNW,344,0.0,0.0,63,0.00,,,0.00,meteohub,2013-09-30 03:17:00,
2013-09-29 22:22:00,64.8,51.8,29.92,NNW,344,0.0,0.0,63,0.00,,,0.00,meteohub,2013-09-30 03:22:00,
2013-09-29 22:27:00,64.6,51.3,29.92,NNW,344,0.0,0.0,62,0.00,,,0.00,meteohub,2013-09-30 03:27:00,
2013-09-29 22:32:00,64.4,51.1,29.93,NNW,344,0.0,0.0,62,0.00,,,0.00,meteohub,2013-09-30 03:32:00,
2013-09-29 22:37:00,64.0,50.7,29.93,NNW,344,0.0,0.0,62,0.00,,,0.00,meteohub,2013-09-30 03:37:00,
2013-09-29 22:42:00,64.0,51.6,29.93,NNW,344,0.0,0.0,64,0.00,,,0.00,meteohub,2013-09-30 03:42:00,
2013-09-29 22:47:00,63.9,51.1,29.93,NNW,344,0.0,0.0,63,0.00,,,0.00,meteohub,2013-09-30 03:47:00,
2013-09-29 22:52:00,63.9,51.4,29.93,NNW,344,0.0,0.0,64,0.00,,,0.00,meteohub,2013-09-30 03:52:00,
2013-09-29 22:57:00,63.7,51.3,29.93,NNW,344,0.0,0.0,64,0.00,,,0.00,meteohub,2013-09-30 03:57:00,
2013-09-29 23:01:00,63.7,51.3,29.93,NNW,344,0.0,0.0,64,0.00,,,0.00,meteohub,2013-09-30 04:01:00,
2013-09-29 23:02:00,63.7,51.3,29.93,NNW,344,0.0,0.0,64,0.00,,,0.00,meteohub,2013-09-30 04:02:00,
2013-09-29 23:03:00,63.5,52.3,29.93,NNW,344,0.0,0.0,67,0.00,,,0.00,meteohub,2013-09-30 04:03:00,
2013-09-29 23:08:00,63.5,52.0,29.93,NNW,344,0.0,0.0,66,0.00,,,0.00,meteohub,2013-09-30 04:08:00,
2013-09-29 23:14:00,63.5,52.0,29.93,NNW,344,0.0,0.0,66,0.00,,,0.00,meteohub,2013-09-30 04:14:00,
2013-09-29 23:18:00,63.5,51.4,29.94,NNW,344,0.0,0.0,65,0.00,,,0.00,meteohub,2013-09-30 04:18:00,
2013-09-29 23:24:00,63.5,51.4,29.94,NNW,344,0.0,0.0,65,0.00,,,0.00,meteohub,2013-09-30 04:24:00,
2013-09-29 23:29:00,63.5,51.1,29.94,NNW,344,0.0,0.0,64,0.00,,,0.00,meteohub,2013-09-30 04:29:00,
2013-09-29 23:34:00,63.5,51.4,29.94,NNW,344,0.0,0.0,65,0.00,,,0.00,meteohub,2013-09-30 04:34:00,
2013-09-29 23:39:00,63.3,51.4,29.94,NNW,344,0.0,0.0,65,0.00,,,0.00,meteohub,2013-09-30 04:39:00,
2013-09-29 23:44:00,63.3,50.9,29.94,NNW,344,0.0,0.0,64,0.00,,,0.00,meteohub,2013-09-30 04:44:00,
2013-09-29 23:49:00,63.5,51.1,29.94,NNW,344,0.0,0.0,64,0.00,,,0.00,meteohub,2013-09-30 04:49:00,
2013-09-29 23:54:00,63.3,51.4,29.93,NNW,344,0.0,0.0,65,0.00,,,0.00,meteohub,2013-09-30 04:54:00,